Location: Pallagorio
(39.3000°N, 16.9000°E)
Time: 21:53:24
(UTC+00:00)

Cosmos 923 Rocket - Pass Details

Date: 24 January 2021
Orbit: 758 x 785 km, 74.0° (Epoch: 02 March)

Event Time Altitude Azimuth Distance (km) Brightness Sun altitude
Rises 17:30:13 0° 338° (NNW) 3,280 7.4 -16.7°
Reaches altitude 10° 17:32:38 10° 335° (NNW) 2,345 6.7 -17.2°
Maximum altitude 17:37:53 64° 255° (WSW) 863 4.5 -18.2°
Drops below altitude 10° 17:43:05 10° 175° (S) 2,315 6.5 -19.2°
Sets 17:45:28 0° 172° (S) 3,234 7.3 -19.6°
